Reflectivity
-20 -20 -20 -20 -20 -20 -20 -20 -20 -20 -20 -20 -20 -20 -20 -20 -20 -20 -20 -20 -20 -20 -20 -20 -20 -20 -20 -20 -20 -20 -20 -20 -16 -20 -20 -20 -20 -17 -17 -18 1 1 4
-20 -20 -20 -20 -20 -20 -20 -20 -20 -20 -20 -20 -20 -20 -20 -20 -20 -20 -20 -20 -20 -20 -20 -20 -20 -20 -20 -20 -20 -20 -20 -20 -20 -20 -20 -20 -15 -20 -19 4 9 -20 -19
-5 -19 -20 -20 -20 -20 -20 -20 -20 -20 -20 -20 -20 -20 -20 -20 -20 -20 -20 -20 -20 -20 -20 -20 -20 -20 -20 -20 -11 -20 -20 -20 -20 -20 -20 -20 -20 -11 -4 -20 1 -19 -20
-20 -20 -20 -20 -20 -20 -20 -20 -20 -20 -20 -20 -15 -20 -20 -20 -20 -20 -20 -20 -20 -20 -20 -20 -20 -20 -20 -20 -20 -15 -20 -20 -20 -20 -20 -20 -20 -20 -11 2 -10 15 -20
-20 -20 -20 -3 -20 -20 -20 -20 -20 -2 -3 -4 -8 0 -5 -20 -20 -8 -6 -8 -7 -8 -4 -11 -20 -20 -20 -20 -20 -20 -20 -20 -20 -20 -20 -20 -20 -20 -6 2 4 -9 20
-20 -20 -20 -20 -20 -20 -20 -20 -20 -5 -5 -3 -2 -3 1 -20 -20 -20 0 3 0 2 2 3 -2 -20 -20 -20 -20 -20 -20 -20 -12 -18 -20 1 2 3 2 4 9 4 -3
-20 -20 -20 -20 -20 -20 -20 -20 -20 -20 -20 -20 -5 -7 -10 -20 -20 -20 -20 -16 -7 -6 -3 -3 -20 -20 -20 -20 -20 -20 -20 -20 -20 -2 -2 3 -0 4 4 2 -3 10 7
-20 -20 -20 -20 -20 -20 -20 -20 -20 -20 -20 -20 -20 -20 -20 -20 -20 -20 -20 -20 -20 -20 -20 -20 -20 -20 -20 -20 -20 -20 -20 -20 -20 -20 -3 -4 -2 1 3 4 -6 0 25
-20 -20 -20 -20 -20 -20 -20 -20 -20 -20 -20 -20 -20 -20 -20 -20 -20 -20 -20 -20 -20 -20 -20 -20 -20 -20 -20 -20 -20 -20 -20 -11 -20 -20 -20 -20 -4 -20 -17 -20 -20 -20 -20
-20 -20 -20 -20 -20 -20 -20 -20 -20 -20 -20 -20 -20 -20 -20 -18 -20 -20 -20 -20 -14 -2 -5 -2 -20 -20 -20 -20 -20 -20 -20 -15 -19 -18 -4 -3 -20 -6 -20 -0 -13 -20 -20
-20 -20 -20 -20 -20 -20 -20 -20 -20 -20 -20 -20 -20 -5 -15 -6 -20 -20 -20 -16 -7 0 -0 -2 -20 -20 -20 -20 -20 -20 -20 -18 -1 0 -0 -3 -7 -20 -20 -3 -4 -6 -16
-20 -20 -20 -20 -20 -20 -20 -20 -20 -20 -20 -20 -16 -4 -2 -5 -17 -20 -20 -20 -20 -0 -0 -3 -9 -20 -20 -20 -20 -20 -20 -11 -1 -1 -1 -4 1 1 -8 -16 2 -5 -17
-20 -20 -20 -20 -20 -20 -20 -20 -20 -20 -20 -20 -20 -11 -1 -4 -20 -20 -20 -20 -20 -19 -20 -20 -20 -20 -20 -20 -20 -20 -1 0 2 1 2 4 -12 -16 -7 -20 -1 -18 -19
-20 -20 -20 -20 -20 -20 -20 -20 -20 -20 -20 -20 -20 -13 -5 -6 -1 -1 -5 -18 -18 -8 -20 -8 -20 -20 -20 -20 -8 0 -0 1 1 2 2 -19 -20 -20 -20 -20 -20 -20 -20
-20 -20 -20 -20 -20 -20 -20 -20 -20 -20 -20 -20 -20 -10 0 2 -12 -20 -20 -12 -16 -17 -20 -4 -2 -2 -1 -1 -1 -2 -2 -1 -0 -1 -2 -7 -20 -20 -20 -20 -20 -20 -20
-20 -20 -20 -20 -20 -20 -20 -20 -20 -20 -20 -20 -20 -6 -20 -20 -20 -20 -20 -20 -20 -20 -10 -13 -2 0 -2 -16 -15 -15 -4 -6 -18 -16 -5 -20 -20 -20 -20 -20 -20 -20 -20
-20 -20 -20 -20 -20 -20 -20 -20 -20 -20 -20 -20 -20 -20 -20 -20 -20 -20 -20 -20 -20 -20 -20 -20 -4 -1 -20 -20 -20 -20 -20 -20 -20 -20 -4 -5 -4 -19 -20 -20 -20 -20 -20
-20 -20 -20 -20 -20 -20 -20 -20 -17 -17 -17 -5 -20 -18 -19 -20 -20 -20 -20 -20 -20 -20 -20 -20 -20 -20 -20 -20 -20 -20 -15 -1 -1 -1 -1 1 1 -0 -5 -20 -20 -20 -20
-20 -20 -20 -20 -20 -20 -20 -2 2 -1 0 2 6 -2 -14 -20 -20 -20 -20 -20 -20 -20 -20 -20 -20 -20 -20 -20 -1 1 2 0 1 3 3 0 3 -0 -0 -2 -1 -20 -20
-20 -20 -20 -20 -20 -20 -4 0 4 2 3 -1 -2 3 0 -10 -7 3 -1 -1 -13 -20 -20 -20 -20 -20 -20 -20 -0 1 1 1 -1 -0 3 4 1 1 -0 -1 -1 -3 -20
-20 -20 -20 -20 -20 -20 -3 0 -1 -7 7 4 0 6 -20 -19 2 3 -1 -2 -11 -20 -20 -20 -20 -4 -6 -5 -20 1 -2 2 1 1 4 -2 4 1 -1 0 -3 -3 -20
9 2 -20 -20 -20 -20 -20 -20 -0 1 3 3 4 7 -20 -19 1 -2 -2 -5 -4 -20 -20 -20 -15 -20 -20 -16 -3 2 1 1 3 4 4 0 -2 3 2 3 0 -2 -4
12 -20 -20 -20 -20 -20 -20 -20 0 -2 -1 4 3 -20 -20 -0 2 -2 -2 -8 -2 -5 -19 -19 -3 -20 -4 -2 0 -1 -0 2 2 2 0 3 1 -4 4 2 -3 -1 -1
-20 -20 -20 -20 -20 -20 -5 -1 1 -3 2 7 8 -3 -5 1 4 1 -1 -7 0 -0 -4 -20 -20 -20 -20 -8 1 2 0 0 6 7 -20 1 1 -4 -4 -3 -1 -1 1
1 -20 -20 -20 -20 -3 1 4 1 -3 0 5 5 4 2 7 4 2 -1 -1 -3 -1 -20 -20 -20 -20 -18 -20 -20 -19 -20 -20 -20 -20 -16 5 3 -17 4 0 2 -0 4
-16 -20 -20 -14 -2 3 4 0 1 0 -0 2 4 6 4 1 2 1 1 -2 -14 -20 -20 -20 -8 -20 -20 -12 -4 -20 -20 -20 -8 -20 -20 -5 7 4 7 -1 5 -0 1
Wind_Speed
10 9 8 7 7 6 6 6 6 6 5 6 6 7 8 8 9 8 8 10 10 10 11 11 12 13 10 9 9 9 9 7 8 10 9 12 14 14 14 10 10 9 9
11 10 9 8 7 7 7 7 6 6 6 6 6 7 7 7 9 9 9 10 10 10 11 12 12 10 13 13 10 13 11 12 10 14 12 11 14 16 14 14 8 9 9
7 6 10 8 8 8 7 7 7 6 6 6 6 6 6 6 7 6 8 9 8 9 8 10 11 12 12 11 11 12 12 11 10 10 10 11 11 13 14 13 10 10 9
12 7 9 8 7 7 9 7 6 7 7 6 6 5 5 7 7 7 7 8 8 8 9 9 12 11 12 13 11 12 12 12 12 10 10 11 12 15 11 12 12 4 8
15 13 11 8 9 8 8 7 7 7 6 5 5 2 5 6 5 6 6 7 8 8 8 9 10 12 12 11 9 11 12 11 11 11 11 12 12 14 14 12 10 11 5
16 15 14 13 12 11 10 10 9 8 7 6 4 4 3 5 6 5 5 5 5 6 7 6 8 13 12 10 10 11 12 11 12 11 11 11 13 13 12 12 11 10 8
16 16 15 14 13 12 11 11 10 10 9 8 6 6 5 7 4 1 2 4 4 5 5 5 6 8 13 10 5 9 11 13 12 11 12 12 12 14 15 13 13 11 5
16 16 15 14 13 12 11 11 10 9 9 7 5 4 5 7 4 5 8 3 4 5 7 10 10 11 14 14 9 8 9 9 9 7 9 10 10 11 13 12 13 11 2
16 14 16 15 14 13 12 11 9 8 7 6 5 4 4 8 5 7 12 2 3 5 6 9 11 11 17 19 11 11 10 10 10 11 11 12 14 17 18 10 11 11 10
16 13 13 14 14 13 12 10 9 8 7 6 5 4 3 8 6 9 12 1 4 2 3 4 15 12 15 16 11 11 10 11 10 9 8 10 11 13 16 12 11 11 11
16 16 15 14 12 10 10 10 8 9 7 7 7 5 3 6 7 8 11 3 5 2 3 4 7 11 12 14 13 9 10 10 10 8 8 8 9 10 9 9 10 9 10
16 16 16 14 11 11 12 10 10 8 7 7 8 7 6 6 5 7 7 7 9 3 4 5 6 8 8 9 10 12 11 10 7 8 8 9 9 9 9 9 8 6 5
17 17 15 14 13 13 13 11 9 10 8 8 7 6 6 7 7 7 5 3 5 3 4 4 4 3 5 4 7 10 9 7 8 8 8 8 8 8 8 9 8 8 6
17 17 15 14 13 13 11 9 9 8 8 7 7 6 6 5 4 5 4 6 6 4 4 2 2 5 5 4 4 7 6 7 7 7 8 7 7 8 8 8 8 8 7
16 15 14 12 13 12 10 9 8 7 5 7 6 5 5 6 6 7 6 5 5 4 6 2 3 3 4 5 5 5 6 7 7 7 7 8 8 8 9 8 8 8 8
15 13 12 11 11 10 10 8 16 15 15 15 13 8 8 13 12 8 6 5 3 3 4 2 3 3 4 4 5 5 5 7 7 7 7 8 8 8 9 8 9 9 8
15 14 11 11 11 11 10 10 8 9 12 11 10 11 10 11 10 7 5 3 2 6 2 2 3 3 3 4 4 5 5 5 6 6 7 7 8 8 9 8 9 10 9
13 11 11 9 9 8 8 8 9 9 9 8 8 11 13 12 9 6 4 4 5 3 2 2 2 3 3 4 4 5 5 6 6 6 6 7 7 7 8 9 9 9 10
12 10 10 8 8 8 8 9 8 9 9 8 8 10 11 12 7 4 4 4 0 1 1 1 2 2 3 3 4 4 3 4 4 4 5 5 6 7 7 8 8 9 10
9 13 12 10 9 10 9 9 9 9 9 9 8 9 9 9 6 7 3 1 2 1 1 1 1 2 3 3 2 2 3 3 4 4 4 4 5 6 7 7 8 9 9
10 12 14 11 10 10 9 9 9 9 9 9 9 9 15 8 6 5 4 4 2 2 1 1 1 1 2 2 3 3 3 3 3 4 4 5 4 5 6 6 8 9 9
11 12 11 11 10 10 10 9 8 9 9 9 7 7 14 7 5 4 4 4 3 1 0 1 2 1 2 3 3 3 2 2 3 4 4 4 4 5 6 6 6 8 9
12 13 12 11 10 11 9 9 8 8 9 9 10 8 7 7 6 5 4 5 4 3 1 1 2 1 0 1 2 3 3 3 4 3 5 5 5 5 6 6 7 7 7
12 12 12 10 9 10 9 8 8 9 9 9 9 8 8 8 6 5 5 5 4 3 3 3 2 1 3 2 3 2 2 3 4 3 1 5 5 5 6 6 6 9 6
11 11 10 11 10 9 10 9 9 9 9 8 8 8 8 7 6 6 5 5 4 4 4 2 2 4 5 3 3 4 7 5 5 7 6 5 5 4 5 5 5 7 8
12 12 11 10 9 9 9 9 9 9 8 8 8 7 7 7 7 7 6 6 5 5 4 4 5 2 1 5 3 6 3 3 5 5 6 7 5 5 5 6 7 6 8
Wind_Direction
155 151 144 140 137 133 118 109 102 93 77 72 66 56 36 32 31 23 36 30 23 17 14 13 7 356 355 2 354 358 355 346 318 329 326 352 355 357 350 354 7 11 359
154 153 147 146 149 130 117 111 108 97 82 76 79 67 62 36 46 29 35 44 25 28 15 15 10 1 5 5 359 0 357 336 342 333 350 357 1 4 351 352 12 15 5
100 141 150 154 144 119 117 101 81 80 75 70 75 70 56 56 59 59 32 52 44 22 27 17 13 11 9 2 4 360 356 338 353 339 357 359 3 359 348 358 352 21 18
149 111 91 100 114 134 111 95 87 86 87 83 69 60 59 46 48 44 48 40 42 37 25 29 19 18 11 6 3 1 356 347 358 355 4 0 6 0 347 351 349 14 26
162 152 146 140 138 121 124 129 121 115 109 109 108 80 84 75 46 35 47 43 34 33 31 18 34 19 18 24 8 5 4 1 3 360 6 3 4 358 355 337 348 341 44
167 165 166 162 153 151 150 158 144 140 138 128 122 122 132 88 70 49 40 50 36 37 28 33 33 27 9 13 33 24 24 11 10 3 6 4 357 356 346 340 345 349 1
168 170 169 168 163 165 166 162 161 161 159 149 166 163 145 102 75 331 269 108 66 38 29 27 43 41 12 340 43 38 34 32 19 5 7 8 355 355 343 343 346 335 10
173 173 170 171 170 172 172 171 169 163 166 163 156 159 124 92 50 315 318 294 55 51 44 14 26 33 20 355 5 33 28 25 21 15 12 7 2 358 350 341 340 335 -0
177 177 174 174 176 174 177 172 171 166 160 144 151 138 121 115 55 343 318 115 84 50 42 42 20 23 17 3 14 19 18 14 8 6 13 17 11 14 11 -0 3 2 351
178 172 169 177 178 177 175 170 168 157 151 142 135 125 12 113 66 12 353 5 58 360 59 83 52 20 19 19 18 15 11 353 358 357 11 14 16 13 18 18 7 10 358
177 168 174 179 167 154 167 168 169 152 157 136 144 143 107 35 71 36 14 16 358 360 19 27 54 15 20 17 21 19 2 332 353 357 4 13 10 11 16 10 14 14 12
166 168 172 170 168 171 165 169 168 149 145 175 156 166 143 123 79 68 44 31 352 349 14 39 45 7 5 26 16 360 358 355 3 3 6 10 7 5 6 357 7 358 40
162 170 170 166 170 177 166 175 174 165 172 177 181 180 157 159 144 139 126 96 33 24 32 34 349 341 335 27 13 354 11 10 4 7 6 6 6 354 1 358 352 355 17
165 170 170 171 171 175 165 180 181 178 180 183 185 179 157 167 161 174 142 168 171 208 179 170 281 270 243 314 13 11 15 10 7 5 1 355 360 3 3 3 353 356 4
170 169 168 173 179 172 172 177 186 175 192 180 175 167 169 171 92 74 35 35 359 37 292 296 352 357 359 5 6 18 24 6 7 3 6 355 360 11 356 7 1 -0 6
171 169 170 168 184 171 169 116 53 98 85 75 60 117 80 101 111 105 108 80 11 311 243 358 10 353 3 2 2 0 19 14 1 2 5 3 356 6 354 9 8 358 5
173 172 166 167 181 174 169 163 142 101 101 101 104 119 138 123 117 126 127 135 267 276 243 17 9 358 356 7 2 3 -0 23 353 1 9 9 351 3 359 1 15 4 357
172 161 163 169 172 166 160 157 155 161 162 153 153 141 135 132 130 137 164 222 203 186 31 12 3 2 358 4 9 1 2 7 5 354 15 4 354 0 5 6 12 10 349
163 159 153 156 157 157 157 155 161 169 172 159 158 157 149 136 133 164 223 267 330 118 45 22 4 349 354 353 22 358 346 12 341 347 9 9 353 351 14 3 4 6 354
154 145 153 155 156 160 165 168 173 177 175 162 169 172 160 156 190 192 186 195 196 126 64 333 11 337 347 340 349 349 315 354 5 353 3 14 360 349 4 6 4 357 10
156 154 160 161 167 171 173 174 179 182 175 176 187 180 169 187 215 179 181 174 204 169 174 305 296 274 299 323 315 354 354 341 359 344 357 355 339 356 352 10 2 357 8
153 160 169 169 168 176 177 181 182 180 176 185 177 145 162 194 222 188 187 154 153 181 134 290 285 325 343 348 347 325 320 315 341 351 342 326 333 1 350 359 5 355 1
164 165 172 170 171 170 178 179 178 180 181 183 154 148 182 202 208 188 175 137 184 186 119 291 262 305 105 205 324 319 314 352 356 0 319 324 329 16 335 354 354 2 1
162 165 169 163 167 167 171 173 172 181 181 172 161 158 182 200 182 180 148 154 174 177 157 174 264 344 30 282 280 269 301 16 335 334 348 310 316 1 343 342 360 341 358
156 163 165 156 162 165 166 170 175 177 178 171 171 175 179 168 170 164 162 152 186 189 177 212 232 161 189 198 295 325 44 32 347 334 294 280 294 305 295 313 359 326 340
155 158 153 156 158 164 164 168 173 172 176 174 172 170 166 172 175 167 161 172 178 198 191 188 165 214 225 226 195 67 14 344 318 351 312 299 297 300 332 338 334 329 326